Regional Weather Roundup
Issued by NWS Bismarck, ND

Home | Current Version | Previous Version | Text Only | Print | Product List | Glossary On
Versions: 1 2 3 4 5 6 7 8 9 10 11 12 13 14 15 16 17 18 19 20 21 22 23 24 25 26 27 28 29 30 31 32 33 34 35 36 37 38 39 40 41 42 43 44 45 46 47 48 49 50
000
ASUS43 KBIS 282220
RWRBIS

NWR BROADCAST TEXT
NATIONAL WEATHER SERVICE BISMARCK ND
400 PM CST FRI NOV 28 2014

NOTE: "FAIR" INDICATES FEW OR NO CLOUDS BELOW 12,000 FEET WITH NO
SIGNIFICANT WEATHER AND/OR OBSTRUCTIONS TO VISIBILITY.


CITY           SKY/WX    TMP DP  RH WIND       PRES   REMARKS
WILLISTON      CLEAR     25  19  78 SE3       29.47F
MINOT          MOCLDY    13   8  81 SE15      29.57F WCI  -3
MINOT AFB      FLURRIES  12   9  85 SE17      29.57F WCI  -5
BISMARCK       MOCLDY    22  16  78 E9        29.61F WCI  12
DICKINSON      MOCLDY    40  32  73 S9        29.45F
GARRISON         N/A     18  14  84 SE13      29.56S WCI   5
HETTINGER ARPT CLOUDY    41  31  67 E5        29.51F
JAMESTOWN      CLOUDY    15   9  76 SE12      29.68F WCI   2
BEACH          FAIR      45  32  61 SW10      29.46F
CARRINGTON     FLURRIES  12  10  92 SE17      29.66F WCI  -5
CROSBY         FAIR      18  14  86 SE9       29.48S WCI   6
HARVEY         CLOUDY    14   9  79 SE16      29.63F WCI  -2
HAZEN          MOCLDY    19  14  79 NE8       29.56F WCI   9
LINTON         FAIR      21  18  86 SE8       29.62S WCI  12
MANDAN         MOCLDY    23  18  80 E9        29.59F WCI  13
OAKES            N/A     16  12  86 E17       29.69F WCI   0
RUGBY          CLOUDY    12   9  85 SE18      29.64F WCI  -5
STANLEY        MOCLDY    14  14 100 SE15      29.50F WCI  -1
TIOGA          MOCLDY    16  16 100 SE16      29.50F WCI   0
$$

CITY           SKY/WX    TMP DP  RH WIND       PRES   REMARKS
GRAND FORKS    CLOUDY    15   9  76 SE9       29.79F WCI   3
GRAND FORKS AF CLOUDY    14  10  85 SE12      29.78F WCI   0
DEVILS LAKE    MOCLDY    12   1  62 SE14      29.67F WCI  -3
FARGO          PTCLDY    18  10  71 E9        29.77F WCI   7
CANDO          CLOUDY    14   9  79 SE14      29.69F WCI  -1
CAVALIER       LGT SNOW  16  10  79 SE7       29.79F VSB 3/4 WCI   6
GRAFTON        CLOUDY    14  10  85 SE13      29.79F FOG     WCI   0
GWINNER        MOCLDY    19  14  79 E16       29.72F WCI   5
LANGDON        CLOUDY    12   7  79 SE15      29.70F HAZE    WCI  -4
ROLLA          CLOUDY    10   7  85 SE15      29.66F WCI  -6
WALHALLA       LGT SNOW  14  14 100 SE8       29.78F VSB 1   WCI   3
$$

CITY           SKY/WX    TMP DP  RH WIND       PRES   REMARKS
ABERDEEN       PTCLDY    21  14  74 E9        29.68F WCI  11
MOBRIDGE       PTCLDY    25  19  78 E10       29.59S WCI  15
BUFFALO          N/A     51  33  50 SW12      29.47F
RAPID CITY     MOSUNNY   58  25  28 W10       29.56S
GLASGOW        PTCLDY    29  24  82 NW6       29.41R
SIDNEY         PTCLDY    28  27  93 CALM      29.46F
WOLF POINT     PTCLDY    30  25  81 E6        29.42F
GLENDIVE       MOCLDY    41  34  75 S5        29.45S
MILES CITY     CLOUDY    47  36  65 S8        29.45F
BAKER          CLOUDY    50  31  48 SW12      29.49F
$$

CITY           SKY/WX    TMP DP  RH WIND       PRES   REMARKS
BILLINGS       PTSUNNY   57  28  33 W18G30    29.52S
GREAT FALLS    PTSUNNY   54  33  45 SW24G32   29.40R
REGINA         LGT SNOW  10   7  85 SE10      29.52R DRFTSNOWWCI  -3
ESTEVAN        FLURRIES  12   7  79 SE16G24   29.50F WCI  -4
$$



USA.gov is the U.S. government's official web portal to all federal, state and local government web resources and services.